Home > Weather > Gjøvik > Past weeks

Flag for Norway Past Weather in Gjøvik, Norway — Yesterday and Last 2 Weeks

Now
58 °F

Cool.


Feels Like: 58 °F
Forecast: 46 / 67 °F
Wind: 1 mph from Southeast

Location: Lillehammer-Saetherengen

Current Time: Jul 26, 2016 at 6:19:56 PM

Latest Report: Jul 26, 2016 at 5:00 PM


Visibility: N/A

Pressure: 29.87 "Hg

Humidity: 89%

Dew Point: 55 °F

Location of GjøvikLocation

Past Weather in Gjøvik — Graph

°F

Gjøvik Temperature Yesterday

Maximum temperature yesterday: 74 °F (at 3:00 PM)
Minimum temperature yesterday: 57 °F (at 4:00 AM)
Average temperature yesterday: 63 °F

High & Low Weather Summary for the Past Weeks

 TemperatureHumidityPressure
High77 °F (Jul 20, 5:00 PM)95% (Jul 12, 5:00 AM)30.11 "Hg (Jul 12, 5:00 AM)
Low49 °F (Jul 19, 6:00 AM)34% (Jul 16, 3:00 PM)29.35 "Hg (Jul 11, 7:00 PM)
Average62 °F72%29.87 "Hg
* Reported Jul 11 5:00 PM — Jul 26 5:00 PM, Gjøvik, Weather by CustomWeather, © 2016

Note: Actual official high and low records may vary slightly from our data, if they occured in-between our weather recording intervals... More about our weather records

Advertising

Gjøvik Weather History for the Previous 24 Hours

Scroll right to see more
 ConditionsComfort  
Time TempWeatherWind HumidityBarometerVisibility
5:00 PM
Tue, Jul 26
58 °FCool.1 mph89%29.87 "HgN/A
4:00 PM59 °FCool.2 mph82%29.84 "HgN/A
3:00 PM58 °FCool.2 mph79%29.84 "HgN/A
2:00 PM68 °FMild.5 mph62%29.79 "HgN/A
1:00 PM67 °FMild.3 mph72%29.80 "HgN/A
12:00 PM66 °FMild.2 mph79%29.81 "HgN/A
11:00 AM64 °FMild.5 mph84%29.83 "HgN/A
10:00 AM61 °FCool.3 mph91%29.84 "HgN/A
9:00 AM60 °FCool.2 mph94%29.84 "HgN/A
8:00 AM60 °FCool.1 mph93%29.86 "HgN/A
7:00 AM59 °FCool.1 mph92%29.86 "HgN/A
6:00 AM60 °FCool.1 mph88%29.87 "HgN/A
5:00 AM61 °FCool.2 mph84%29.88 "HgN/A
4:00 AM60 °FCool.2 mph86%29.90 "HgN/A
3:00 AM61 °FCool.3 mph86%29.90 "HgN/A
2:00 AM61 °FCool.1 mph88%29.91 "HgN/A
1:00 AM62 °FCool.1 mph87%29.91 "HgN/A
12:00 AM62 °FCool.2 mph87%29.92 "HgN/A
11:00 PM
Mon, Jul 25
62 °FCool.3 mph84%29.92 "HgN/A
10:00 PM62 °FCool.3 mph84%29.93 "HgN/A
9:00 PM62 °FCool.3 mph86%29.93 "HgN/A
8:00 PM62 °FCool.3 mph88%29.94 "HgN/A
7:00 PM63 °FMild.3 mph84%29.94 "HgN/A
6:00 PM66 °FMild.2 mph78%29.95 "HgN/A
Weather by CustomWeather, © 2016

See weather overviewHow to use our weather pages